Location: Clarion
(42.7316°N, 93.7330°W)
Time: 08:28:21
(UTC+00:00)

Cosmos 1634 Rocket - Pass Details

Date: 22 April 2026
Orbit: 959 x 991 km, 82.9° (Epoch: 17 May)

Event Time Altitude Azimuth Distance (km) Brightness Sun altitude
Exits shadow 07:34:32 71° 31° (NNE) 1,015 4.1 -32.0°
Drops below altitude 10° 07:40:02 10° 10° (N) 2,701 7.1 -31.6°
Sets 07:42:33 0° 9° (N) 3,651 8.0 -31.4°
